Time,TemperatureF,DewpointF,PressureIn,WindDirection,WindDirectionDegrees,WindSpeedMPH,WindSpeedGustMPH,Humidity,HourlyPrecipIn,Conditions,Clouds,dailyrainin,SoftwareType,DateUTC
2013-01-15 00:02:00,27.0,-99.9,30.49,ESE,115,1.0,3.0,0,-99.99,,,-99.99,,2013-01-15 08:02:00,
2013-01-15 00:12:00,27.0,-99.9,30.50,ESE,120,0.0,2.0,0,-99.99,,,-99.99,,2013-01-15 08:12:00,
2013-01-15 00:22:00,27.0,-99.9,30.50,ESE,120,0.0,2.0,0,-99.99,,,-99.99,,2013-01-15 08:22:00,
2013-01-15 00:33:00,27.0,-99.9,30.51,ESE,110,1.0,2.0,0,-99.99,,,-99.99,,2013-01-15 08:33:00,
2013-01-15 00:43:00,26.0,-99.9,30.52,ESE,110,0.0,2.0,0,-99.99,,,-99.99,,2013-01-15 08:43:00,
2013-01-15 00:53:00,26.0,-99.9,30.52,ESE,110,0.0,2.0,0,-99.99,,,-99.99,,2013-01-15 08:53:00,
2013-01-15 01:02:00,26.0,-99.9,30.52,ESE,115,0.0,2.0,0,-99.99,,,-99.99,,2013-01-15 09:02:00,
2013-01-15 01:12:00,26.0,-99.9,30.52,ESE,105,1.0,2.0,0,-99.99,,,-99.99,,2013-01-15 09:12:00,
2013-01-15 01:22:00,26.0,-99.9,30.52,ESE,105,1.0,2.0,0,-99.99,,,-99.99,,2013-01-15 09:22:00,
2013-01-15 01:33:00,26.0,-99.9,30.52,SE,130,0.0,3.0,0,-99.99,,,-99.99,,2013-01-15 09:33:00,
2013-01-15 01:43:00,26.0,-99.9,30.53,SE,135,1.0,2.0,0,-99.99,,,-99.99,,2013-01-15 09:43:00,
2013-01-15 01:52:00,26.0,-99.9,30.53,SE,135,1.0,2.0,0,-99.99,,,-99.99,,2013-01-15 09:52:00,
2013-01-15 02:02:00,26.0,-99.9,30.53,SE,130,1.0,3.0,0,-99.99,,,-99.99,,2013-01-15 10:02:00,
2013-01-15 02:12:00,27.0,-99.9,30.54,ESE,110,2.0,3.0,0,-99.99,,,-99.99,,2013-01-15 10:12:00,
2013-01-15 02:22:00,27.0,-99.9,30.54,ESE,110,2.0,3.0,0,-99.99,,,-99.99,,2013-01-15 10:22:00,
2013-01-15 02:33:00,27.0,-99.9,30.54,SE,145,0.0,3.0,0,-99.99,,,-99.99,,2013-01-15 10:33:00,
2013-01-15 02:42:00,27.0,-99.9,30.54,East,100,1.0,3.0,0,-99.99,,,-99.99,,2013-01-15 10:42:00,
2013-01-15 02:52:00,27.0,-99.9,30.54,East,100,1.0,3.0,0,-99.99,,,-99.99,,2013-01-15 10:52:00,
2013-01-15 03:03:00,27.0,-99.9,30.54,ESE,105,2.0,3.0,0,-99.99,,,-99.99,,2013-01-15 11:03:00,
2013-01-15 03:12:00,27.0,-99.9,30.54,SE,135,1.0,3.0,0,-99.99,,,-99.99,,2013-01-15 11:12:00,
2013-01-15 03:23:00,27.0,-99.9,30.54,SE,135,1.0,3.0,0,-99.99,,,-99.99,,2013-01-15 11:23:00,
2013-01-15 03:33:00,27.0,-99.9,30.54,ESE,110,1.0,3.0,0,-99.99,,,-99.99,,2013-01-15 11:33:00,
2013-01-15 03:43:00,27.0,-99.9,30.54,ESE,110,1.0,3.0,0,-99.99,,,-99.99,,2013-01-15 11:43:00,
2013-01-15 03:53:00,27.0,-99.9,30.54,ESE,115,1.0,5.0,0,-99.99,,,-99.99,,2013-01-15 11:53:00,
2013-01-15 04:03:00,27.0,-99.9,30.54,ESE,115,2.0,5.0,0,-99.99,,,-99.99,,2013-01-15 12:03:00,
2013-01-15 04:12:00,27.0,-99.9,30.54,SE,135,2.0,3.0,0,-99.99,,,-99.99,,2013-01-15 12:12:00,
2013-01-15 04:23:00,27.0,-99.9,30.54,SE,135,2.0,3.0,0,-99.99,,,-99.99,,2013-01-15 12:23:00,
2013-01-15 04:33:00,27.0,-99.9,30.54,SE,145,1.0,5.0,0,-99.99,,,-99.99,,2013-01-15 12:33:00,
2013-01-15 04:43:00,27.0,-99.9,30.54,SE,145,1.0,5.0,0,-99.99,,,-99.99,,2013-01-15 12:43:00,
2013-01-15 04:53:00,27.0,-99.9,30.54,SE,125,0.0,3.0,0,-99.99,,,-99.99,,2013-01-15 12:53:00,
2013-01-15 05:03:00,27.0,-99.9,30.54,SE,145,0.0,3.0,0,-99.99,,,-99.99,,2013-01-15 13:03:00,
2013-01-15 05:13:00,26.0,-99.9,30.53,ESE,115,1.0,2.0,0,-99.99,,,-99.99,,2013-01-15 13:13:00,
2013-01-15 05:23:00,26.0,-99.9,30.53,ESE,115,1.0,2.0,0,-99.99,,,-99.99,,2013-01-15 13:23:00,
2013-01-15 05:33:00,26.0,-99.9,30.53,ESE,120,1.0,2.0,0,-99.99,,,-99.99,,2013-01-15 13:33:00,
2013-01-15 05:43:00,26.0,-99.9,30.53,ESE,120,1.0,2.0,0,-99.99,,,-99.99,,2013-01-15 13:43:00,
2013-01-15 05:53:00,26.0,-99.9,30.53,ESE,110,0.0,2.0,0,-99.99,,,-99.99,,2013-01-15 13:53:00,
2013-01-15 06:03:00,26.0,-99.9,30.53,ESE,110,1.0,2.0,0,-99.99,,,-99.99,,2013-01-15 14:03:00,
2013-01-15 06:13:00,27.0,-99.9,30.54,SSE,160,1.0,3.0,0,-99.99,,,-99.99,,2013-01-15 14:13:00,
2013-01-15 06:23:00,27.0,-99.9,30.54,SSE,160,1.0,3.0,0,-99.99,,,-99.99,,2013-01-15 14:23:00,
2013-01-15 06:33:00,26.0,-99.9,30.54,ESE,120,2.0,2.0,0,-99.99,,,-99.99,,2013-01-15 14:33:00,
2013-01-15 06:43:00,26.0,-99.9,30.54,ESE,120,2.0,2.0,0,-99.99,,,-99.99,,2013-01-15 14:43:00,
2013-01-15 06:54:00,27.0,-99.9,30.55,SE,140,0.0,2.0,0,-99.99,,,-99.99,,2013-01-15 14:54:00,
2013-01-15 07:03:00,26.0,-99.9,30.55,SE,145,0.0,3.0,0,-99.99,,,-99.99,,2013-01-15 15:03:00,
2013-01-15 07:13:00,27.0,-99.9,30.55,SSE,165,3.0,5.0,0,-99.99,,,-99.99,,2013-01-15 15:13:00,
2013-01-15 07:23:00,27.0,-99.9,30.55,SSE,165,3.0,5.0,0,-99.99,,,-99.99,,2013-01-15 15:23:00,
2013-01-15 07:33:00,28.0,-99.9,30.55,SE,125,2.0,7.0,0,-99.99,,,-99.99,,2013-01-15 15:33:00,
2013-01-15 07:43:00,29.0,-99.9,30.55,SSE,150,3.0,7.0,0,-99.99,,,-99.99,,2013-01-15 15:43:00,
2013-01-15 07:53:00,29.0,-99.9,30.55,SSE,150,3.0,7.0,0,-99.99,,,-99.99,,2013-01-15 15:53:00,
2013-01-15 08:12:00,30.0,-99.9,30.57,South,170,2.0,6.0,0,-99.99,,,-99.99,,2013-01-15 16:12:00,
2013-01-15 08:23:00,30.0,-99.9,30.57,South,170,2.0,6.0,0,-99.99,,,-99.99,,2013-01-15 16:23:00,
2013-01-15 08:33:00,30.0,-99.9,30.57,SSE,160,2.0,8.0,0,-99.99,,,-99.99,,2013-01-15 16:33:00,
2013-01-15 08:43:00,30.0,-99.9,30.57,SSE,160,2.0,8.0,0,-99.99,,,-99.99,,2013-01-15 16:43:00,
2013-01-15 08:53:00,31.0,-99.9,30.58,South,180,2.0,7.0,0,-99.99,,,-99.99,,2013-01-15 16:53:00,
2013-01-15 09:04:00,31.0,-99.9,30.58,South,180,2.0,7.0,0,-99.99,,,-99.99,,2013-01-15 17:04:00,
2013-01-15 09:13:00,32.0,-99.9,30.59,SSE,150,3.0,7.0,0,-99.99,,,-99.99,,2013-01-15 17:13:00,
2013-01-15 09:23:00,32.0,-99.9,30.59,SSE,150,3.0,7.0,0,-99.99,,,-99.99,,2013-01-15 17:23:00,
2013-01-15 09:33:00,33.0,-99.9,30.59,SE,145,5.0,10.0,0,-99.99,,,-99.99,,2013-01-15 17:33:00,
2013-01-15 09:53:00,33.0,-99.9,30.60,SSE,160,1.0,6.0,0,-99.99,,,-99.99,,2013-01-15 17:53:00,
2013-01-15 10:03:00,33.0,-99.9,30.60,SSE,160,1.0,6.0,0,-99.99,,,-99.99,,2013-01-15 18:03:00,
2013-01-15 10:13:00,36.0,-99.9,30.60,East,85,1.0,8.0,0,-99.99,,,-99.99,,2013-01-15 18:13:00,
2013-01-15 10:23:00,36.0,-99.9,30.60,East,85,1.0,8.0,0,-99.99,,,-99.99,,2013-01-15 18:23:00,
2013-01-15 10:34:00,36.0,-99.9,30.60,East,85,1.0,8.0,0,-99.99,,,-99.99,,2013-01-15 18:34:00,
2013-01-15 10:54:00,40.0,-99.9,30.61,ENE,65,1.0,5.0,0,-99.99,,,-99.99,,2013-01-15 18:54:00,
2013-01-15 11:03:00,40.0,-99.9,30.61,ENE,65,1.0,5.0,0,-99.99,,,-99.99,,2013-01-15 19:03:00,
2013-01-15 11:13:00,42.0,-99.9,30.60,SE,140,3.0,9.0,0,-99.99,,,-99.99,,2013-01-15 19:13:00,
2013-01-15 11:23:00,42.0,-99.9,30.60,SE,140,3.0,9.0,0,-99.99,,,-99.99,,2013-01-15 19:23:00,
2013-01-15 11:33:00,43.0,-99.9,30.60,SSE,155,3.0,12.0,0,-99.99,,,-99.99,,2013-01-15 19:33:00,
2013-01-15 11:43:00,44.0,-99.9,30.59,SSE,155,3.0,12.0,0,-99.99,,,-99.99,,2013-01-15 19:43:00,
2013-01-15 11:53:00,44.0,-99.9,30.59,SSE,155,3.0,12.0,0,-99.99,,,-99.99,,2013-01-15 19:53:00,
2013-01-15 12:04:00,44.0,-99.9,30.59,SSE,155,3.0,12.0,0,-99.99,,,-99.99,,2013-01-15 20:04:00,